Home > Weather > Schwechat > Past weeks

Flag for Austria Weather for the Past 2 Weeks in Schwechat, Lower Austria, Austria

Now
50 °F

Clear.


Feels Like: 47 °F
Forecast: 49 / 54 °F
Wind: 8 mph from Northwest

Location: Vienna Schwechat-Flughafen Airport

Current Time: May 3, 2016 at 6:09:13 AM

Latest Report: May 3, 2016 at 5:20 AM


Visibility: 10 mi

Pressure: 29.98 "Hg

Humidity: 76%

Dew Point: 43 °F

Location of SchwechatLocation

Historic Weather in Schwechat — Graph

°F

Schwechat Temperature Yesterday

Maximum temperature yesterday: 66 °F (at 3:50 PM)
Minimum temperature yesterday: 50 °F (at 5:50 AM)
Average temperature yesterday: 56 °F

High & Low Weather Summary for the Past Weeks

 TemperatureHumidityPressure
High68 °F (Apr 22, 2:50 PM)100% (Apr 18, 8:50 AM)30.36 "Hg (Apr 18, 8:50 AM)
Low30 °F (Apr 26, 3:50 AM)29% (Apr 26, 1:50 PM)29.59 "Hg (Apr 23, 6:50 PM)
Average50 °F64%29.99 "Hg
* Reported Apr 18 3:20 AM — May 3 3:20 AM, Schwechat, Weather by CustomWeather, © 2016

Note: Actual official high and low records may vary slightly from our data, if they occured in-between our weather recording intervals... More about our weather records

Advertising

Schwechat Weather History for the Previous 24 Hours

Scroll right to see more
 ConditionsComfort  
Time TempWeatherWind HumidityBarometerVisibility
3:20 AM
Tue, May 3
52 °FClear.9 mph77%29.98 "Hg10 mi
2:50 AM54 °FClear.10 mph72%29.98 "Hg10 mi
2:20 AM54 °FClear.9 mph72%29.98 "Hg10 mi
1:50 AM54 °FClear.9 mph77%30.01 "Hg10 mi
1:20 AM54 °FClear.10 mph77%30.01 "Hg10 mi
12:50 AM55 °FPassing clouds.10 mph72%30.01 "HgN/A
11:50 PM
Mon, May 2
55 °FPassing clouds.10 mph72%30.01 "HgN/A
11:20 PM55 °FPassing clouds.8 mph77%30.01 "HgN/A
10:50 PM55 °FPassing clouds.8 mph77%30.01 "HgN/A
10:20 PM55 °FPassing clouds.9 mph77%30.01 "HgN/A
9:50 PM55 °FClear.9 mph82%30.01 "Hg10 mi
9:20 PM55 °FClear.7 mph82%30.01 "Hg10 mi
8:50 PM55 °FLight rain. Broken clouds.13 mph88%30.01 "HgN/A
8:20 PM55 °FLight rain. Broken clouds.13 mph88%30.01 "HgN/A
7:50 PM55 °FRain. Broken clouds.15 mph88%30.01 "HgN/A
7:20 PM57 °FLight rain. Partly sunny.6 mph77%30.01 "HgN/A
6:50 PM57 °FLight rain. Partly sunny.5 mph77%30.01 "HgN/A
6:20 PM57 °FPartly sunny.8 mph77%30.01 "HgN/A
5:50 PM57 °FBroken clouds.7 mph77%30.01 "HgN/A
5:20 PM57 °FLight rain. Partly sunny.8 mph77%30.01 "HgN/A
4:50 PM61 °FPartly sunny.12 mph59%30.01 "HgN/A
4:20 PM61 °FSprinkles. Broken clouds.18 mph59%30.01 "HgN/A
3:50 PM66 °FBroken clouds.13 mph52%30.01 "HgN/A
3:20 PM64 °FBroken clouds.13 mph56%30.01 "HgN/A
2:50 PM64 °FBroken clouds.9 mph60%30.01 "HgN/A
2:20 PM63 °FPartly sunny.7 mph64%30.04 "HgN/A
1:50 PM61 °FPartly sunny.7 mph68%30.04 "HgN/A
1:20 PM61 °FPassing clouds.7 mph72%30.04 "HgN/A
12:50 PM59 °FPartly sunny.7 mph77%30.04 "HgN/A
12:20 PM57 °FLight rain. Partly sunny.7 mph77%30.07 "HgN/A
11:50 AM57 °FLight rain. Partly sunny.9 mph72%30.07 "HgN/A
11:20 AM57 °FSprinkles. Broken clouds.7 mph67%30.09 "HgN/A
10:50 AM57 °FPartly sunny.14 mph67%30.07 "HgN/A
10:20 AM57 °FPartly sunny.10 mph72%30.07 "HgN/A
9:50 AM55 °FSunny.9 mph72%30.07 "Hg10 mi
9:20 AM54 °FSunny.10 mph77%30.07 "Hg10 mi
8:50 AM52 °FPassing clouds.9 mph77%30.09 "HgN/A
8:20 AM52 °FPartly sunny.10 mph77%30.07 "HgN/A
6:50 AM50 °FPartly sunny.9 mph82%30.07 "HgN/A
6:20 AM50 °FPartly cloudy.8 mph82%30.07 "HgN/A
Weather by CustomWeather, © 2016

See weather overviewHow to use our weather pages